Wind_Speed
28 35 35 32 31 28 25 22 21 19 16 13 10 8 7 6 6 6 5 5 4 2 2 4 4 8 8 5 4 4 5 7 7 7 8 7 7 7 9 11 12 12 11
20 25 32 36 35 32 30 27 25 23 20 18 15 12 9 8 7 8 7 6 6 3 1 1 2 6 8 8 5 4 5 6 7 8 8 8 7 7 9 11 12 13 11
21 20 23 32 38 38 35 32 28 26 24 22 19 16 13 11 10 8 9 7 7 6 4 3 2 4 8 8 7 5 6 6 6 7 8 8 7 7 9 11 12 13 11
22 20 22 23 33 40 39 35 32 29 27 24 23 20 17 15 13 11 10 10 7 7 6 6 4 4 7 8 8 7 6 6 6 7 8 8 8 8 9 11 11 11 11
25 21 21 22 24 32 42 40 36 33 30 27 25 23 21 18 17 14 12 12 10 9 9 8 7 6 6 7 8 7 7 7 7 7 8 9 10 10 11 11 12 12 12
29 27 25 24 21 22 30 40 42 38 35 32 28 27 25 22 20 18 14 13 14 12 11 11 10 9 8 7 8 8 7 8 8 8 8 10 10 12 12 13 13 13 13
33 31 30 29 26 24 22 24 33 42 39 36 33 30 28 27 24 21 18 16 14 15 14 13 13 12 11 9 9 9 8 8 9 9 9 10 11 13 14 15 15 15 14
37 34 33 31 29 28 27 23 24 31 41 39 37 34 31 29 29 25 23 20 17 16 17 16 15 15 15 13 12 11 11 10 10 10 10 10 11 13 15 16 17 18 18
41 39 37 35 32 31 30 27 25 25 30 42 41 39 36 33 31 29 26 24 22 19 18 19 18 17 18 16 15 14 13 13 13 13 13 12 13 14 15 18 19 20 21
45 41 40 40 37 35 33 32 31 27 27 32 40 42 40 38 36 33 30 29 26 23 20 20 20 20 20 19 19 18 16 15 16 16 16 16 16 15 16 18 20 21 22
49 46 43 42 42 40 36 34 33 31 28 26 32 41 42 40 38 37 36 33 30 28 25 22 22 23 23 22 22 21 19 18 18 19 19 19 19 19 18 19 21 21 24
53 48 47 43 42 43 39 38 35 34 33 30 28 28 36 44 42 40 39 36 34 32 29 25 24 25 25 25 25 24 22 21 21 21 21 22 22 21 21 21 22 22 24
57 54 53 49 41 41 43 41 38 37 38 36 34 33 30 32 41 44 42 38 38 37 34 31 27 27 27 27 28 27 26 24 23 24 23 24 24 23 24 24 25 23 25
60 58 56 54 50 43 40 41 42 41 41 39 39 37 32 31 35 39 44 42 40 41 39 37 34 30 30 30 30 30 29 28 26 26 25 26 26 25 25 27 27 26 26
63 62 60 57 52 51 44 43 44 43 43 39 38 39 34 30 28 32 38 44 44 44 42 40 40 36 34 32 33 32 32 31 29 28 28 28 29 28 29 29 29 29 31
65 65 64 61 58 55 51 43 39 41 38 37 37 39 39 33 30 29 29 33 41 46 47 46 45 42 38 36 36 36 35 33 32 31 31 31 31 31 31 31 33 35 36
67 67 66 65 62 60 57 54 48 47 46 42 40 40 43 38 33 34 34 32 32 38 48 48 50 47 44 41 39 37 37 36 35 34 34 33 33 33 33 34 37 40 43
70 67 68 67 66 64 62 59 57 52 52 47 46 41 43 46 41 40 40 37 35 39 41 48 54 56 51 46 43 41 39 39 37 36 36 36 36 36 37 39 42 44 45
71 69 67 69 68 66 65 62 60 58 53 53 50 48 46 47 45 43 44 43 37 39 46 48 50 50 49 49 46 45 43 41 39 39 39 39 39 38 37 44 49 48 47
71 73 71 70 70 69 68 66 62 61 57 60 51 48 47 47 46 47 46 42 39 43 48 44 54 59 65 53 46 44 45 43 42 42 41 41 40 38 44 47 50 50 55
71 72 75 73 71 72 70 67 64 63 61 58 54 52 54 52 52 50 51 48 45 47 52 54 58 66 54 50 55 55 50 48 46 45 45 43 42 43 48 47 52 59 54
68 72 71 74 72 72 70 67 65 64 65 62 60 59 57 54 51 52 51 53 51 51 54 53 52 42 43 50 56 58 60 58 46 48 48 46 49 51 53 54 59 58 57
66 67 70 72 71 71 71 70 68 66 65 62 60 59 58 55 56 58 55 55 52 51 51 54 54 59 49 54 59 59 54 53 56 54 51 52 56 61 58 57 57 47 46
66 67 70 71 73 69 68 70 70 67 66 63 61 63 59 59 59 59 59 58 54 50 53 51 56 57 55 55 55 63 64 65 60 55 56 55 58 54 45 42 43 44 40
58 69 69 71 72 69 68 65 63 61 59 59 60 59 57 58 59 57 58 58 55 54 54 50 49 54 65 67 71 58 57 53 40 37 33 32 34 38 45 46 47 47 47
41 59 70 68 69 69 65 59 53 53 53 51 54 54 52 55 55 51 54 56 56 56 55 52 43 57 53 51 54 59 44 34 32 35 38 39 38 40 46 46 48 51 49
Wind_Direction
246 241 241 247 245 243 241 236 234 234 236 243 242 242 248 252 256 269 295 291 297 0 30 5 20 11 354 348 334 307 273 266 267 275 283 290 302 317 339 346 350 348 343
248 245 241 239 245 245 246 242 240 238 239 241 243 244 244 250 251 251 269 295 291 295 272 304 353 4 357 348 336 321 303 283 277 278 283 290 299 306 330 339 345 347 340
257 255 246 237 235 240 242 244 242 241 239 242 244 244 244 244 253 257 254 277 291 279 268 259 279 337 353 348 333 332 322 309 300 291 287 287 287 292 318 330 339 342 340
251 252 255 250 236 232 237 240 244 243 242 241 244 244 244 247 248 256 258 253 275 272 263 263 260 288 327 345 340 331 329 320 315 304 294 291 286 288 304 320 331 337 339
250 245 247 250 243 237 236 237 242 246 246 242 243 245 243 244 249 251 261 261 260 272 260 254 257 264 288 321 333 330 324 319 315 307 300 291 284 286 297 310 322 330 335
248 246 240 240 241 242 241 240 238 242 246 247 244 245 247 245 246 248 251 260 258 266 271 261 254 258 267 287 308 318 319 314 309 305 302 295 289 288 295 303 310 317 322
246 247 245 243 242 246 246 246 244 238 241 245 246 245 248 250 249 247 247 252 255 255 263 266 263 260 261 265 277 292 301 304 302 302 297 295 293 292 294 298 302 305 308
243 245 247 246 246 248 252 252 249 245 239 241 244 247 247 250 252 251 249 246 250 254 254 261 266 267 263 260 263 272 281 288 291 292 291 290 291 294 295 296 298 299 302
239 240 241 243 243 247 249 252 251 253 250 241 242 244 248 250 253 253 252 251 247 251 255 255 260 263 266 265 262 263 268 276 280 284 285 285 286 293 294 294 293 296 297
237 238 241 241 242 245 247 249 251 250 249 248 244 244 243 247 251 255 253 252 251 249 251 257 257 261 261 262 261 262 264 269 274 277 280 283 281 284 291 293 294 297 296
238 238 240 242 242 241 243 243 248 251 253 252 251 249 247 245 247 251 254 253 253 252 251 254 257 260 261 260 260 258 258 263 269 274 276 278 278 277 284 291 293 294 296
237 237 237 240 243 240 239 241 243 249 251 252 252 254 254 250 249 248 251 253 254 254 252 250 253 254 258 261 262 260 256 258 264 269 273 276 279 278 281 287 291 295 297
236 237 237 236 240 239 237 238 243 250 251 252 253 255 255 257 254 250 251 251 254 254 255 253 251 253 256 258 260 261 261 259 261 265 270 273 276 277 277 282 286 289 291
235 235 236 237 232 234 234 235 236 236 242 248 254 254 256 251 251 252 254 251 251 253 254 254 254 255 254 256 258 259 261 261 261 264 268 271 273 275 275 276 281 282 286
233 234 234 236 235 234 243 238 236 237 241 243 249 252 248 245 249 253 253 253 252 253 254 253 253 252 254 255 259 259 258 260 261 264 266 269 273 273 272 273 276 278 283
235 234 234 233 234 232 230 235 229 233 234 243 246 248 240 241 244 250 257 259 255 257 256 256 255 252 252 256 257 260 261 260 261 262 265 267 270 272 274 275 274 274 276
237 235 234 233 234 234 231 231 236 239 237 245 239 237 236 241 247 254 256 259 258 258 261 259 255 255 253 252 255 258 261 262 262 261 263 266 270 273 275 276 276 279 279
240 236 235 235 233 232 232 233 235 235 235 241 240 240 239 247 255 256 256 254 254 252 254 255 263 257 252 252 253 256 259 260 262 263 265 267 270 274 276 278 282 278 279
236 238 234 235 235 233 232 232 233 235 237 234 239 242 247 252 257 259 262 258 254 255 252 259 262 258 247 251 254 256 258 259 259 262 264 267 272 276 283 287 282 278 284
235 235 235 233 235 235 233 233 231 234 229 238 240 243 244 249 253 256 257 261 252 255 251 255 270 254 256 256 262 256 254 258 260 262 266 268 271 276 284 275 275 276 282
236 234 235 232 232 234 234 234 234 234 234 238 241 241 244 243 243 247 254 256 248 250 245 250 254 253 260 253 251 262 260 255 262 267 266 269 269 271 272 271 273 277 283
238 236 234 237 233 232 235 234 234 233 235 236 239 240 244 248 250 252 253 255 256 253 251 258 250 259 247 255 264 263 260 258 257 262 265 266 266 269 268 267 273 278 280
239 238 236 236 237 234 233 234 234 234 236 237 240 242 244 248 251 255 255 255 255 256 252 256 253 252 258 258 257 258 258 258 264 262 266 268 269 268 271 271 274 271 281
235 237 236 235 236 235 235 235 236 237 239 241 241 243 247 250 251 254 257 256 256 257 252 247 251 254 253 263 265 259 263 265 261 260 274 273 270 270 266 265 264 270 280
235 230 232 233 234 235 236 236 237 238 240 240 243 246 247 249 252 254 257 258 257 255 252 247 248 252 261 262 268 264 264 268 269 271 263 277 278 267 271 267 266 270 276
231 227 227 227 231 234 236 238 240 239 237 239 241 244 246 250 253 258 258 258 255 255 253 243 246 257 260 261 265 261 264 250 258 266 267 266 267 271 274 276 277 270 277
Height
5856 5859 5861 5864 5865 5868 5870 5872 5874 5875 5876 5877 5878 5879 5879 5880 5881 5882 5883 5884 5884 5885 5885 5886 5887 5887 5886 5886 5886 5885 5885 5885 5885 5886 5886 5886 5886 5885 5885 5884 5883 5882 5881
5851 5852 5856 5858 5861 5864 5866 5869 5871 5872 5873 5875 5876 5877 5878 5879 5880 5881 5882 5883 5884 5884 5885 5885 5886 5886 5886 5886 5886 5885 5885 5885 5885 5885 5886 5886 5885 5885 5885 5884 5883 5882 5881
5847 5849 5849 5851 5855 5858 5861 5864 5867 5869 5870 5872 5873 5875 5876 5877 5878 5879 5880 5882 5883 5883 5884 5885 5885 5886 5886 5886 5886 5885 5886 5886 5886 5885 5885 5885 5885 5884 5884 5883 5882 5881 5880
5843 5845 5846 5846 5848 5852 5855 5858 5862 5864 5867 5869 5870 5872 5873 5875 5876 5877 5878 5880 5881 5882 5883 5884 5884 5885 5886 5886 5886 5885 5885 5885 5885 5885 5885 5885 5885 5884 5883 5882 5882 5881 5880
5840 5842 5843 5843 5844 5846 5850 5853 5857 5860 5863 5865 5867 5868 5870 5872 5873 5875 5876 5878 5879 5880 5881 5882 5883 5883 5884 5885 5885 5885 5885 5885 5885 5885 5884 5884 5884 5883 5883 5882 5881 5880 5879
5836 5838 5839 5840 5842 5843 5845 5848 5852 5855 5858 5861 5863 5865 5867 5868 5869 5872 5873 5875 5877 5879 5879 5880 5881 5882 5883 5883 5884 5884 5884 5884 5884 5884 5884 5883 5883 5883 5882 5881 5881 5880 5878
5831 5834 5836 5837 5839 5840 5842 5843 5846 5849 5852 5855 5858 5861 5863 5865 5866 5868 5870 5872 5874 5876 5878 5878 5879 5880 5881 5882 5882 5882 5883 5883 5883 5882 5882 5882 5881 5881 5881 5881 5879 5878 5877
5825 5828 5831 5833 5835 5837 5838 5840 5841 5843 5846 5849 5852 5856 5858 5861 5862 5865 5867 5868 5870 5872 5874 5876 5877 5878 5879 5880 5880 5880 5881 5881 5881 5880 5880 5880 5879 5879 5878 5878 5877 5877 5875
5818 5821 5824 5826 5830 5832 5834 5835 5837 5839 5840 5843 5846 5850 5853 5856 5858 5861 5863 5865 5866 5868 5870 5872 5874 5875 5876 5877 5877 5878 5878 5878 5878 5878 5878 5877 5877 5877 5876 5875 5874 5873 5873
5810 5814 5817 5820 5823 5827 5830 5831 5832 5834 5836 5838 5840 5844 5846 5850 5853 5855 5859 5860 5862 5864 5865 5868 5870 5872 5872 5873 5874 5874 5875 5875 5875 5875 5875 5875 5875 5874 5873 5872 5871 5871 5870
5801 5806 5810 5813 5816 5820 5823 5826 5828 5829 5832 5834 5836 5839 5842 5844 5847 5850 5853 5856 5858 5860 5861 5863 5865 5867 5868 5869 5870 5870 5871 5871 5872 5872 5871 5871 5870 5870 5870 5869 5868 5867 5866
5792 5796 5801 5805 5809 5813 5816 5819 5823 5824 5826 5829 5831 5834 5836 5839 5842 5844 5847 5850 5853 5855 5856 5857 5859 5861 5863 5864 5865 5866 5867 5867 5867 5867 5867 5867 5866 5867 5867 5866 5864 5864 5863
5782 5786 5790 5795 5800 5804 5808 5813 5817 5820 5821 5823 5825 5828 5831 5833 5836 5839 5840 5844 5846 5848 5851 5852 5853 5855 5858 5860 5860 5861 5862 5863 5863 5862 5862 5862 5862 5862 5862 5861 5860 5859 5858
5771 5775 5780 5784 5790 5794 5799 5804 5808 5811 5814 5816 5818 5821 5824 5827 5829 5832 5833 5836 5838 5840 5843 5846 5848 5850 5851 5853 5855 5855 5856 5856 5857 5857 5857 5857 5856 5856 5856 5855 5854 5854 5853
5761 5764 5768 5774 5779 5786 5791 5794 5799 5803 5807 5810 5812 5815 5819 5821 5823 5825 5826 5828 5831 5832 5835 5838 5840 5842 5844 5847 5848 5850 5850 5850 5851 5851 5851 5851 5851 5850 5850 5850 5849 5848 5847
5749 5754 5757 5763 5768 5775 5781 5785 5789 5795 5799 5802 5805 5808 5811 5814 5816 5818 5819 5821 5823 5825 5827 5830 5832 5834 5836 5839 5841 5843 5845 5845 5845 5845 5845 5845 5844 5844 5844 5844 5842 5840 5838
5735 5741 5748 5753 5758 5764 5771 5775 5780 5785 5790 5793 5797 5799 5803 5805 5809 5811 5812 5814 5817 5818 5819 5821 5824 5827 5828 5830 5832 5834 5838 5839 5839 5839 5839 5839 5838 5838 5837 5838 5836 5834 5831
5717 5728 5735 5741 5747 5753 5758 5764 5769 5774 5781 5785 5788 5792 5794 5798 5800 5803 5805 5807 5809 5811 5810 5813 5815 5817 5819 5821 5823 5825 5828 5831 5832 5832 5832 5832 5831 5831 5831 5831 5829 5826 5825
5703 5710 5721 5727 5735 5742 5747 5753 5757 5762 5769 5774 5779 5783 5786 5790 5792 5793 5795 5798 5800 5801 5799 5802 5804 5807 5808 5810 5815 5817 5820 5822 5823 5824 5824 5825 5825 5825 5825 5825 5821 5819 5818
5688 5694 5702 5711 5719 5727 5734 5740 5746 5751 5758 5763 5769 5774 5777 5780 5782 5784 5786 5789 5791 5792 5793 5794 5797 5795 5800 5804 5805 5807 5810 5812 5814 5815 5816 5818 5817 5817 5817 5815 5812 5808 5807
5671 5678 5685 5694 5704 5710 5719 5728 5735 5742 5748 5753 5758 5761 5763 5767 5771 5774 5777 5780 5783 5783 5784 5784 5789 5791 5791 5794 5795 5798 5800 5801 5804 5806 5808 5808 5807 5807 5806 5805 5803 5801 5798
5655 5663 5673 5677 5688 5697 5706 5715 5723 5731 5736 5742 5745 5748 5752 5757 5762 5766 5770 5771 5772 5773 5774 5776 5780 5780 5780 5784 5785 5786 5788 5792 5792 5795 5796 5796 5796 5796 5794 5793 5790 5788 5787
5642 5650 5658 5666 5674 5685 5694 5701 5709 5717 5724 5732 5738 5743 5745 5747 5749 5750 5755 5757 5760 5763 5764 5765 5767 5773 5774 5773 5774 5776 5777 5780 5780 5781 5783 5784 5785 5782 5782 5780 5780 5779 5777
5627 5633 5643 5651 5658 5669 5679 5688 5697 5706 5715 5722 5728 5731 5735 5737 5739 5740 5742 5745 5748 5751 5754 5755 5758 5760 5763 5765 5765 5766 5766 5769 5768 5768 5770 5772 5770 5770 5771 5770 5771 5770 5769
5607 5617 5627 5636 5645 5656 5666 5677 5688 5698 5705 5710 5716 5721 5725 5728 5728 5731 5732 5733 5736 5739 5742 5743 5747 5752 5753 5753 5755 5758 5755 5759 5758 5760 5760 5762 5761 5761 5761 5761 5761 5760 5760
5589 5600 5611 5622 5633 5644 5657 5670 5682 5688 5693 5700 5705 5710 5715 5717 5718 5720 5721 5722 5723 5726 5727 5733 5737 5740 5743 5742 5744 5746 5747 5750 5751 5752 5754 5755 5752 5753 5751 5751 5752 5751 5751